TimeCDT,TemperatureF,Dew PointF,Humidity,Sea Level PressureIn,VisibilityMPH,Wind Direction,Wind SpeedMPH,Gust SpeedMPH,PrecipitationIn,Events,Conditions,WindDirDegrees,DateUTC
12:15 AM,70.9,65.8,84,30.05,10.0,ESE,5.8,-,N/A,,Clear,110,2013-07-05 05:15:00
12:35 AM,70.2,65.3,85,30.05,10.0,ESE,5.8,-,N/A,,Clear,110,2013-07-05 05:35:00
12:55 AM,70.0,65.3,85,30.05,10.0,East,4.6,-,N/A,,Clear,100,2013-07-05 05:55:00
1:15 AM,69.8,65.3,86,30.04,10.0,East,3.5,-,N/A,,Clear,100,2013-07-05 06:15:00
1:35 AM,69.8,65.3,86,30.04,10.0,ESE,3.5,-,N/A,,Clear,120,2013-07-05 06:35:00
1:55 AM,69.1,64.8,86,30.04,10.0,Calm,Calm,-,N/A,,Clear,0,2013-07-05 06:55:00
2:15 AM,68.2,64.0,87,30.04,10.0,Calm,Calm,-,N/A,,Clear,0,2013-07-05 07:15:00
2:35 AM,67.5,63.7,88,30.03,10.0,Calm,Calm,-,N/A,,Clear,0,2013-07-05 07:35:00
2:55 AM,66.7,63.1,88,30.03,10.0,Calm,Calm,-,N/A,,Clear,0,2013-07-05 07:55:00
3:15 AM,66.4,63.0,89,30.04,10.0,Calm,Calm,-,N/A,,Clear,0,2013-07-05 08:15:00
3:35 AM,66.7,63.5,89,30.04,7.0,Calm,Calm,-,N/A,,Scattered Clouds,0,2013-07-05 08:35:00
3:55 AM,66.4,63.3,90,30.04,10.0,Calm,Calm,-,N/A,,Clear,0,2013-07-05 08:55:00
4:15 AM,66.0,63.1,90,30.04,10.0,Calm,Calm,-,N/A,,Clear,0,2013-07-05 09:15:00
4:35 AM,66.4,63.5,90,30.04,7.0,Calm,Calm,-,N/A,,Mostly Cloudy,0,2013-07-05 09:35:00
4:55 AM,67.5,64.8,91,30.04,10.0,NNW,3.5,-,N/A,,Overcast,330,2013-07-05 09:55:00
5:15 AM,68.0,65.3,91,30.05,10.0,Calm,Calm,-,N/A,,Overcast,0,2013-07-05 10:15:00
5:35 AM,68.2,65.7,92,30.05,10.0,Calm,Calm,-,N/A,,Overcast,0,2013-07-05 10:35:00
5:55 AM,68.0,65.3,91,30.06,7.0,Calm,Calm,-,N/A,,Scattered Clouds,0,2013-07-05 10:55:00
6:15 AM,67.3,64.8,92,30.06,4.0,Calm,Calm,-,N/A,,Mostly Cloudy,0,2013-07-05 11:15:00
6:35 AM,67.8,65.5,92,30.07,5.0,Calm,Calm,-,N/A,,Scattered Clouds,0,2013-07-05 11:35:00
6:55 AM,68.9,66.6,92,30.07,10.0,Calm,Calm,-,N/A,,Scattered Clouds,0,2013-07-05 11:55:00
7:15 AM,70.7,68.2,92,30.07,10.0,Calm,Calm,-,N/A,,Mostly Cloudy,0,2013-07-05 12:15:00
7:35 AM,71.6,68.9,91,30.08,10.0,Calm,Calm,-,N/A,,Overcast,0,2013-07-05 12:35:00
7:55 AM,72.5,69.6,91,30.09,10.0,ESE,4.6,-,N/A,,Overcast,120,2013-07-05 12:55:00
8:15 AM,73.2,69.8,89,30.10,10.0,ESE,3.5,-,N/A,,Overcast,120,2013-07-05 13:15:00
8:35 AM,74.1,69.8,86,30.10,10.0,SE,3.5,-,N/A,,Overcast,130,2013-07-05 13:35:00
8:55 AM,74.8,69.4,83,30.10,10.0,SE,3.5,-,N/A,,Overcast,140,2013-07-05 13:55:00
9:15 AM,75.4,68.5,79,30.09,10.0,Calm,Calm,-,N/A,,Overcast,0,2013-07-05 14:15:00
9:35 AM,75.4,67.5,76,30.09,10.0,Calm,Calm,-,N/A,,Overcast,0,2013-07-05 14:35:00
9:55 AM,76.6,67.6,74,30.09,10.0,Calm,Calm,-,N/A,,Overcast,0,2013-07-05 14:55:00
10:15 AM,77.7,67.3,70,30.09,10.0,Calm,Calm,-,N/A,,Overcast,0,2013-07-05 15:15:00
10:35 AM,77.9,67.1,69,30.10,10.0,Calm,Calm,-,N/A,,Overcast,0,2013-07-05 15:35:00
10:55 AM,78.1,67.1,69,30.09,10.0,Calm,Calm,-,N/A,,Overcast,0,2013-07-05 15:55:00
11:15 AM,80.1,66.9,64,30.08,10.0,Calm,Calm,-,N/A,,Overcast,0,2013-07-05 16:15:00
11:35 AM,80.2,65.8,61,30.08,10.0,NE,4.6,-,N/A,,Mostly Cloudy,50,2013-07-05 16:35:00
11:55 AM,82.8,66.2,57,30.08,10.0,East,6.9,-,N/A,,Scattered Clouds,80,2013-07-05 16:55:00
12:15 PM,83.7,66.9,57,30.09,10.0,East,4.6,-,N/A,,Scattered Clouds,90,2013-07-05 17:15:00
12:35 PM,83.5,66.9,57,30.08,10.0,ESE,4.6,-,N/A,,Mostly Cloudy,120,2013-07-05 17:35:00
12:55 PM,83.5,66.6,57,30.08,10.0,SSE,3.5,-,N/A,,Scattered Clouds,150,2013-07-05 17:55:00
1:15 PM,85.1,66.4,53,30.08,10.0,Calm,Calm,-,N/A,,Scattered Clouds,0,2013-07-05 18:15:00
1:35 PM,86.0,66.7,52,30.07,10.0,NE,5.8,-,N/A,,Mostly Cloudy,40,2013-07-05 18:35:00
1:55 PM,86.2,66.4,51,30.07,10.0,East,3.5,-,N/A,,Scattered Clouds,90,2013-07-05 18:55:00
2:15 PM,86.9,66.7,51,30.06,10.0,SE,4.6,-,N/A,,Scattered Clouds,140,2013-07-05 19:15:00
2:35 PM,86.7,66.9,52,30.06,10.0,ESE,5.8,-,N/A,,Clear,110,2013-07-05 19:35:00
2:55 PM,86.2,66.6,52,30.06,10.0,ENE,6.9,-,N/A,,Scattered Clouds,70,2013-07-05 19:55:00
3:15 PM,85.6,66.7,53,30.05,10.0,ENE,8.1,-,N/A,,Scattered Clouds,70,2013-07-05 20:15:00
3:35 PM,86.9,66.0,50,30.05,10.0,East,5.8,-,N/A,,Scattered Clouds,90,2013-07-05 20:35:00
3:55 PM,86.9,66.0,50,30.04,10.0,ESE,3.5,-,N/A,,Scattered Clouds,120,2013-07-05 20:55:00
4:15 PM,86.5,65.7,50,30.04,10.0,ESE,5.8,-,N/A,,Clear,110,2013-07-05 21:15:00
4:35 PM,87.1,65.8,49,30.04,10.0,East,4.6,-,N/A,,Scattered Clouds,100,2013-07-05 21:35:00
4:55 PM,86.9,65.5,49,30.03,10.0,ENE,5.8,-,N/A,,Scattered Clouds,70,2013-07-05 21:55:00
5:15 PM,86.4,66.4,51,30.03,10.0,East,5.8,-,N/A,,Scattered Clouds,90,2013-07-05 22:15:00
5:35 PM,84.2,65.3,53,30.02,10.0,East,6.9,-,N/A,,Mostly Cloudy,90,2013-07-05 22:35:00
5:55 PM,85.3,65.7,52,30.01,10.0,East,6.9,-,N/A,,Scattered Clouds,100,2013-07-05 22:55:00
6:15 PM,84.4,65.3,53,30.01,10.0,East,8.1,-,N/A,,Clear,90,2013-07-05 23:15:00
6:35 PM,83.3,65.5,55,30.02,10.0,ESE,9.2,-,N/A,,Clear,110,2013-07-05 23:35:00
6:55 PM,82.6,65.5,56,30.02,10.0,East,5.8,-,N/A,,Scattered Clouds,100,2013-07-05 23:55:00
7:15 PM,82.9,66.2,57,30.02,10.0,ESE,5.8,-,N/A,,Clear,110,2013-07-06 00:15:00
7:35 PM,81.9,66.4,59,30.02,10.0,East,11.5,-,N/A,,Clear,100,2013-07-06 00:35:00
7:55 PM,81.3,67.1,62,30.02,10.0,ESE,10.4,-,N/A,,Clear,110,2013-07-06 00:55:00
8:15 PM,80.1,67.5,65,30.02,10.0,ESE,5.8,-,N/A,,Clear,110,2013-07-06 01:15:00
8:35 PM,79.7,67.5,66,30.03,10.0,East,4.6,-,N/A,,Clear,90,2013-07-06 01:35:00
8:55 PM,78.6,68.0,70,30.04,10.0,East,3.5,-,N/A,,Clear,80,2013-07-06 01:55:00
9:15 PM,78.3,68.0,71,30.04,10.0,East,4.6,-,N/A,,Scattered Clouds,90,2013-07-06 02:15:00
9:35 PM,78.1,68.0,71,30.04,10.0,East,5.8,-,N/A,,Scattered Clouds,100,2013-07-06 02:35:00
9:55 PM,78.1,68.0,71,30.04,10.0,East,4.6,-,N/A,,Scattered Clouds,90,2013-07-06 02:55:00
10:15 PM,77.9,68.2,72,30.04,10.0,East,6.9,-,N/A,,Clear,90,2013-07-06 03:15:00
10:35 PM,77.9,68.0,71,30.04,10.0,East,6.9,-,N/A,,Clear,100,2013-07-06 03:35:00
10:55 PM,77.2,68.0,73,30.04,10.0,ESE,8.1,-,N/A,,Clear,120,2013-07-06 03:55:00
11:15 PM,76.5,67.6,74,30.05,10.0,SE,9.2,-,N/A,,Clear,140,2013-07-06 04:15:00
11:35 PM,76.1,66.6,72,30.04,10.0,ESE,9.2,-,N/A,,Clear,120,2013-07-06 04:35:00
11:55 PM,76.1,67.3,74,30.03,10.0,ESE,6.9,-,N/A,,Clear,110,2013-07-06 04:55:00